Flight Track Log - Related Links

Times and Time Zones

All times are in EDT time to prevent confusion due to time zone crossing. See the EGF2785 flight status page for this flight to view local times or setup timezone preferences in your user account.

Time Position Orientation Groundspeed Altitude Reporting Facility
EDT Latitude Longitude Course Direction KTS MPH feet Rate Location/Type
Thu 10:07:25 AM 43.6667 -79.5833 180° South 60 69 600  Level Toronto Center
Thu 10:08:25 AM 43.6500 -79.6167 235° Southwest 10 12 600 233 Level Toronto Center
Thu 10:13:25 AM 43.6667 -79.5667 103° East 130 150 2,000 550 Climbing Toronto Center
Thu 10:14:25 AM 43.7167 -79.5167 36° Northeast 200 230 3,900 2,250 Climbing Toronto Center
Thu 10:15:25 AM 43.7833 -79.5167 360° North 260 299 6,500 2,850 Climbing Toronto Center
Thu 10:16:25 AM 43.8333 -79.5833 316° Northwest 280 322 9,600 2,400 Climbing Toronto Center
Thu 10:17:25 AM 43.8833 -79.6833 305° West 310 357 11,300 2,100 Climbing Toronto Center
Thu 10:18:25 AM 43.8667 -79.8000 259° West 320 368 13,800 2,350 Climbing Toronto Center
Thu 10:19:25 AM 43.8500 -79.9167 259° West 330 380 16,000 2,050 Climbing Toronto Center
Thu 10:20:25 AM 43.8167 -80.0500 251° West 330 380 17,900 2,100 Climbing Toronto Center
Thu 10:21:25 AM 43.8000 -80.1667 259° West 330 380 20,200 2,000 Climbing Toronto Center
Thu 10:22:25 AM 43.7833 -80.3000 260° West 330 380 21,900 1,700 Climbing Toronto Center
Thu 10:23:25 AM 43.7667 -80.4167 259° West 340 391 23,600 1,750 Climbing Toronto Center
Thu 10:24:25 AM 43.7333 -80.5500 251° West 350 403 25,400 1,700 Climbing Toronto Center
Thu 10:25:25 AM 43.7167 -80.6667 259° West 350 403 27,000 1,550 Climbing Toronto Center
Thu 10:26:25 AM 43.6833 -80.8167 253° West 350 403 28,500 1,250 Climbing Toronto Center
Thu 10:27:25 AM 43.6500 -80.9500 251° West 350 403 29,500 950 Climbing Toronto Center
Thu 10:28:25 AM 43.6167 -81.0833 251° West 360 414 30,400 900 Climbing Toronto Center
Thu 10:29:25 AM 43.5833 -81.2000 249° West 370 426 31,300 800 Climbing Toronto Center
Thu 10:30:25 AM 43.5500 -81.3333 251° West 370 426 32,000 350 Climbing Toronto Center
Thu 10:31:25 AM 43.5333 -81.5000 262° West 380 437 32,000  Level Toronto Center
Thu 10:32:25 AM 43.5000 -81.6333 251° West 390 449 32,000  Level Toronto Center
Thu 10:33:25 AM 43.4667 -81.7667 251° West 380 437 32,000  Level Toronto Center
Thu 10:34:25 AM 43.4333 -81.8833 249° West 370 426 32,000  Level Toronto Center
Thu 10:35:25 AM 43.4000 -82.0500 255° West 370 426 32,000  Level Toronto Center
Thu 10:36:22 AM 43.3900 -82.1486 262° West 368 423 32,000  Level Cleveland Center
Thu 10:37:24 AM 43.3528 -82.3086 252° West 368 423 32,000  Level Cleveland Center
Thu 10:38:26 AM 43.3219 -82.4414 252° West 368 423 32,000  Level Cleveland Center
Thu 10:39:28 AM 43.2897 -82.5739 252° West 368 423 32,000  Level Cleveland Center
Thu 10:40:31 AM 43.2589 -82.7056 252° West 367 422 32,000  Level Cleveland Center
Thu 10:41:33 AM 43.2233 -82.8369 250° West 367 422 32,000  Level Cleveland Center
Thu 10:42:35 AM 43.1875 -82.9644 249° West 366 421 32,000  Level Cleveland Center
Thu 10:43:37 AM 43.1461 -83.1156 249° West 359 413 32,000  Level Cleveland Center
Thu 10:44:39 AM 43.1106 -83.2394 249° West 357 411 32,000  Level Cleveland Center
Thu 10:45:41 AM 43.0761 -83.3642 249° West 356 410 32,000  Level Cleveland Center
Thu 10:46:43 AM 43.0403 -83.4886 249° West 355 409 32,000  Level Cleveland Center
Thu 10:47:45 AM 43.0061 -83.6117 249° West 353 406 32,000  Level Cleveland Center
Thu 10:48:47 AM 42.9656 -83.7614 250° West 353 406 32,000  Level Cleveland Center
Thu 10:49:49 AM 42.9528 -83.8928 262° West 353 406 32,000  Level Cleveland Center
Thu 10:50:52 AM 42.9408 -84.0244 263° West 353 406 32,000  Level Cleveland Center
Thu 10:51:54 AM 42.9275 -84.1553 262° West 353 406 32,000  Level Cleveland Center
Thu 10:52:56 AM 42.9133 -84.2875 262° West 353 406 32,000  Level Cleveland Center
Thu 10:53:58 AM 42.9006 -84.4231 263° West 352 405 32,000  Level Cleveland Center
Thu 10:55:00 AM 42.8844 -84.5811 262° West 352 405 32,000  Level Cleveland Center
Thu 10:56:02 AM 42.8728 -84.7117 263° West 352 405 32,000  Level Cleveland Center
Thu 10:57:04 AM 42.8578 -84.8433 261° West 352 405 32,000  Level Cleveland Center
Thu 10:58:07 AM 42.8439 -84.9736 262° West 351 404 32,000  Level Chicago Center
Thu 10:59:09 AM 42.8292 -85.1044 261° West 350 403 32,000 -488 Level Chicago Center
Thu 11:00:10 AM 42.8153 -85.2375 262° West 351 404 31,000 -1,366 Descending Cleveland Center
Thu 11:01:12 AM 42.7956 -85.4114 261° West 385 443 29,200 -1,645 Descending Chicago Center
Thu 11:02:14 AM 42.7753 -85.5589 259° West 396 456 27,600 -1,500 Descending Chicago Center
Thu 11:03:16 AM 42.7514 -85.6931 256° West 369 425 26,100 -1,452 Descending Chicago Center
Thu 11:04:18 AM 42.7283 -85.8244 257° West 361 415 24,600 -1,452 Descending Chicago Center
Thu 11:05:20 AM 42.7044 -85.9536 256° West 354 407 23,100 -1,463 Descending Chicago Center
Thu 11:06:21 AM 42.6808 -86.0825 256° West 354 407 21,600 -1,463 Descending Chicago Center
Thu 11:07:23 AM 42.6572 -86.2097 256° West 350 403 20,100 -774 Descending Chicago Center
Thu 11:08:25 AM 42.6333 -86.3317 255° West 337 388 20,000 -48 Descending Chicago Center
Thu 11:09:27 AM 42.6111 -86.4517 256° West 328 377 20,000  Level Chicago Center
Thu 11:10:28 AM 42.5836 -86.5956 255° West 328 377 20,000 -780 Level Chicago Center
Thu 11:11:30 AM 42.5644 -86.7092 257° West 332 382 18,400 -2,032 Descending Chicago Center
Thu 11:12:32 AM 42.5322 -86.8356 251° West 329 379 15,800 -2,468 Descending Chicago Center
Thu 11:13:34 AM 42.5014 -86.9408 248° West 307 353 13,300 -1,756 Descending Chicago Center
Thu 11:14:35 AM 42.4750 -87.0381 250° West 276 318 12,200 -1,122 Descending Chicago Center
Thu 11:15:37 AM 42.4508 -87.1239 249° West 249 287 11,000 -1,161 Descending Chicago Center
Thu 11:16:39 AM 42.4272 -87.2094 250° West 246 283 9,800 -1,210 Descending Chicago Center
Thu 11:17:41 AM 42.4000 -87.3106 250° West 237 273 8,500 -1,122 Descending Chicago Center
Thu 11:18:42 AM 42.3772 -87.3958 250° West 239 275 7,500 -927 Descending Chicago Center
Thu 11:19:44 AM 42.3314 -87.4417 216° Southwest 230 265 6,600 -726 Descending Chicago Center
Thu 11:20:46 AM 42.2569 -87.4608 191° South 244 281 6,000 -532 Descending Chicago Center
Thu 11:21:48 AM 42.1919 -87.4772 191° South 240 276 5,500 -634 Descending Chicago Center
Thu 11:22:49 AM 42.1225 -87.4972 192° South 239 275 4,700 -732 Descending Chicago Center
Thu 11:23:51 AM 42.0619 -87.5303 202° Southwest 237 273 4,000 -339 Descending Chicago Center
Thu 11:24:53 AM 42.0219 -87.6025 233° Southwest 224 258 4,000  Level Chicago Center
Thu 11:25:55 AM 42.0017 -87.6664 247° West 196 226 4,000 -439 Level Chicago Center
Thu 11:26:56 AM 42.0022 -87.7381 271° West 195 224 3,100 -976 Descending Chicago Center
Thu 11:27:58 AM 42.0022 -87.8125 270° West 189 217 2,000 -871 Descending Chicago Center
Thu 11:29:00 AM 42.0019 -87.8642 270° West 143 165 1,300 -537 Descending Chicago Center
Thu 11:30:01 AM 42.0017 -87.9050 269° West 129 148 900 -393 Descending Chicago Center

Login

Don't have an account? Register now (free) for customized features, flight alerts, and more!